Notices

What's New in latest Release from April 7th, 2021:

- Updated Glossary, including Speed of Maximum Gust, and Total Hourly Precipitation

- Updated national and regional climate services offices contacts and prices information

- Addition of station inventory lists for 1981-2010, 1971-2000, and 1961-1990 Normals.

If you haven't already, please take our survey and provide feedback about our website: https://eccc.sondage-survey.ca/f/LanguageSelection.aspx?s=442ca660-fcf1-47c0-95a9-59707d6fd709

Hourly Data Report for October 26, 2006

TORONTO CITY
ONTARIO

43°40'00.000" N
79°24'00.000" W
112.50 m
6158355
71508
XTO

Download Data

Hourly Data (October 2006)
Hourly Data Report for October 26, 2006
TIME
LST
Temp Definition
°C
Dew Point Definition
°C
Rel Hum Definition
%
Precip. Amount Definition
mm

Wind Dir Definition
10's deg

Wind Spd Definition
km/h
Visibility Definition
km
Stn Press Definition
kPa
Hmdx Definition


Wind Chill Definition


Weather Definition


00:00 3.6 0.0 77   LegendMM LegendMM   100.88     LegendNANA
01:00 3.2 -0.7 76   LegendMM LegendMM   100.93     LegendNANA
02:00 3.0 -0.8 76   LegendMM LegendMM   100.96     LegendNANA
03:00 2.7 -1.5 74   LegendMM LegendMM   100.99     LegendNANA
04:00 2.2 -1.7 75   LegendMM LegendMM   100.99     LegendNANA
05:00 1.5 -2.1 77   LegendMM LegendMM   101.01     LegendNANA
06:00 1.6 -1.9 78   LegendMM LegendMM   101.01     LegendNANA
07:00 1.8 -1.6 78   LegendMM LegendMM   101.04     LegendNANA
08:00 3.0 -0.4 78   LegendMM LegendMM   101.08     LegendNANA
09:00 3.8 -0.9 71   LegendMM LegendMM   101.14     LegendNANA
10:00 4.6 -1.2 66   LegendMM LegendMM   101.14     LegendNANA
11:00 6.3 0.4 66   LegendMM LegendMM   101.11     LegendNANA
12:00 7.2 -0.1 60   LegendMM LegendMM   101.04     LegendNANA
13:00 7.3 -0.3 58   LegendMM LegendMM   101.00     LegendNANA
14:00 8.0 -0.2 56   LegendMM LegendMM   100.95     LegendNANA
15:00 7.8 -0.3 57   LegendMM LegendMM   100.96     LegendNANA
16:00 7.1 1.3 67   LegendMM LegendMM   100.93     LegendNANA
17:00 6.3 0.9 68   LegendMM LegendMM   100.90     LegendNANA
18:00 5.7 0.8 71   LegendMM LegendMM   100.91     LegendNANA
19:00 4.6 0.5 75   LegendMM LegendMM   100.93     LegendNANA
20:00 5.6 0.5 70   LegendMM LegendMM   100.94     LegendNANA
21:00 5.8 0.1 67   LegendMM LegendMM   100.91     LegendNANA
22:00 5.1 -0.1 69   LegendMM LegendMM   100.91     LegendNANA
23:00 4.8 0.0 71   LegendMM LegendMM   100.89     LegendNANA

Notes on Data Quality.

Legend

  • E = Estimated
  • M = Missing
  • NA = Not Available*
  • [empty] = Indicates an unobserved value
Date modified: